Grand Rapids, MI

10:17 PM EDT on April 26, 2017 (GMT -0400)
Gerald R. Ford International

Weather History for KGRR - February, 2014

Change the Weather History Date:

Friday, February 21, 2014

  Actual Average Record
Temperature  
Mean Temperature 34 °F 28 °F  
Max Temperature 40 °F 35 °F 66 °F (1930)
Min Temperature 28 °F 21 °F -8 °F (1968)
Degree Days  
Heating Degree Days 31 37  
Month to date heating degree days 965 817  
Since 1 July heating degree days 4930 4524  
Cooling Degree Days 0 0  
Month to date cooling degree days 0 0  
Year to date cooling degree days 0 0  
Moisture  
Dew Point 24 °F    
Average Humidity 71    
Maximum Humidity 92    
Minimum Humidity 49    
Precipitation  
Precipitation 0.06 in 0.06 in 2.96 in (1997)
Month to date precipitation 2.14 1.27  
Year to date precipitation 5.55 3.36  
Snow  
Snow 1.00 in 0.50 in 6.00 in (1898)
Month to date snowfall 24.1 11.5  
Since 1 July snowfall 102.9 61.5  
Snow Depth 18.00 in    
Sea Level Pressure  
Sea Level Pressure 29.49 in    
Wind  
Wind Speed 28 mph (SW)    
Max Wind Speed 44 mph    
Max Gust Speed 60 mph    
Visibility 6 miles    
Events Snow    
T = Trace of Precipitation, MM = Missing Value Source: NWS Daily Summary

Daily Weather History Graph

Daily Weather History Graph

Search for Another Location

Airport or City:

Trip Planner

Search our weather history database for the weather conditions in past years. The results will help you decide how hot, cold, wet, or windy it might be!

Date:

Astronomy

Feb. 21, 2014 Rise Set
Actual Time 7:30 AM EST 6:21 PM EST
Civil Twilight 7:01 AM EST 6:50 PM EST
Nautical Twilight 6:28 AM EST 7:23 PM EST
Astronomical Twilight 5:56 AM EST 7:55 PM EST
Moon 12:23 AM EST (2/21) 10:44 AM EST (2/21)
Length of Visible Light 11h 48m
Length of Day
10h 50m
Waning Gibbous, 61% of the Moon is Illuminated
Feb 21
Waning Gibbous
Feb 22
Last Quarter
Mar 1
New
Mar 8
First Quarter
Mar 16
Full

Hourly Weather History & Observations

Time (EST) Temp. Windchill Dew Point Humidity Pressure Visibility Wind Dir Wind Speed Gust Speed Precip Events Conditions
12:53 AM 37.9 °F 28.9 °F 35.1 °F 89% 29.38 in 10.0 mi SSW 16.1 mph - N/A   Overcast
1:53 AM 37.9 °F 27.9 °F 34.0 °F 86% 29.38 in 10.0 mi SW 19.6 mph 32.2 mph N/A   Overcast
2:53 AM 37.9 °F 27.3 °F 28.9 °F 70% 29.37 in 10.0 mi SW 21.9 mph 35.7 mph N/A   Overcast
3:53 AM 37.0 °F 25.9 °F 28.0 °F 70% 29.38 in 10.0 mi SW 23.0 mph 38.0 mph N/A   Overcast
4:53 AM 37.0 °F 24.5 °F 28.0 °F 70% 29.38 in 10.0 mi SSW 29.9 mph 35.7 mph N/A   Overcast
5:53 AM 37.0 °F 25.6 °F 28.0 °F 70% 29.38 in 10.0 mi SW 24.2 mph 36.8 mph N/A   Overcast
6:53 AM 36.0 °F 23.2 °F 26.1 °F 67% 29.40 in 10.0 mi SW 28.8 mph 50.6 mph N/A   Overcast
7:25 AM 35.1 °F 22.2 °F 28.0 °F 76% 29.37 in 1.8 mi SW 27.6 mph 42.6 mph 0.00 in Snow Light Snow
7:53 AM 33.1 °F 19.1 °F 28.0 °F 82% 29.40 in 1.8 mi SW 29.9 mph 39.1 mph 0.00 in Snow Light Snow
8:09 AM 33.1 °F 19.6 °F 28.0 °F 82% 29.38 in 0.8 mi SW 27.6 mph 43.7 mph 0.00 in Snow Light Snow
8:53 AM 32.0 °F 17.9 °F 27.0 °F 82% 29.42 in 0.8 mi SW 28.8 mph 39.1 mph 0.00 in Snow Light Snow
8:59 AM 32.0 °F 20.1 °F 28.0 °F 85% 29.40 in 0.8 mi SW 19.6 mph 38.0 mph 0.00 in Snow Light Snow
9:15 AM 32.0 °F 16.5 °F 28.0 °F 85% 29.40 in 0.2 mi SW 35.7 mph 48.3 mph 0.00 in Snow Heavy Snow
9:41 AM 30.9 °F 16.9 °F 27.0 °F 85% 29.41 in 0.5 mi SW 26.5 mph 38.0 mph 0.00 in Snow Snow
9:53 AM 30.0 °F 15.7 °F 26.1 °F 85% 29.44 in 0.5 mi SW 26.5 mph 43.7 mph 0.00 in Snow Snow
10:26 AM 30.0 °F 14.7 °F 25.0 °F 82% 29.42 in 0.8 mi SW 31.1 mph 44.9 mph 0.00 in Snow Light Snow
10:53 AM 30.0 °F 13.8 °F 24.1 °F 79% 29.46 in 0.8 mi SW 35.7 mph 47.2 mph 0.00 in Snow Light Snow
11:53 AM 28.9 °F 13.0 °F 25.0 °F 85% 29.47 in 0.5 mi SW 32.2 mph 43.7 mph 0.00 in Snow Snow
12:00 PM 28.9 °F 13.0 °F 25.0 °F 85% 29.45 in 0.2 mi SW 32.2 mph 43.7 mph 0.00 in Snow Heavy Snow
12:07 PM 30.0 °F 14.2 °F 23.0 °F 75% 29.45 in 0.5 mi SW 33.4 mph 46.0 mph 0.00 in Snow Snow
12:26 PM 30.0 °F 13.8 °F 21.9 °F 72% 29.46 in 0.2 mi SW 35.7 mph 57.5 mph 0.00 in Snow Heavy Snow
12:35 PM 30.0 °F 14.0 °F 23.0 °F 75% 29.46 in 0.8 mi WSW 34.5 mph 43.7 mph 0.00 in Snow Light Snow
12:53 PM 30.0 °F 13.6 °F 21.9 °F 72% 29.49 in 1.0 mi WSW 36.8 mph 49.5 mph 0.00 in Snow Light Snow
1:53 PM 28.0 °F 10.5 °F 19.9 °F 72% 29.53 in 1.0 mi WSW 39.1 mph 51.8 mph 0.00 in Snow Light Snow
2:53 PM 28.9 °F 13.5 °F 19.0 °F 67% 29.55 in 3.0 mi WSW 29.9 mph 47.2 mph 0.00 in Snow Light Snow
3:53 PM 30.9 °F 16.4 °F 19.9 °F 64% 29.57 in 10.0 mi WSW 28.8 mph 41.4 mph 0.00 in   Overcast
4:09 PM 30.9 °F 14.9 °F 19.9 °F 64% 29.55 in 8.0 mi WSW 36.8 mph 48.3 mph N/A   Overcast
4:53 PM 30.9 °F 14.7 °F 19.0 °F 61% 29.59 in 5.0 mi WSW 38.0 mph 48.3 mph N/A   Haze
5:53 PM 30.0 °F 14.9 °F 18.0 °F 61% 29.63 in 10.0 mi WSW 29.9 mph 40.3 mph 0.00 in   Partly Cloudy
6:53 PM 30.0 °F 16.3 °F 16.0 °F 56% 29.65 in 10.0 mi WSW 24.2 mph 35.7 mph N/A   Partly Cloudy
7:53 PM 30.0 °F 15.2 °F 15.1 °F 54% 29.68 in 10.0 mi SW 28.8 mph 39.1 mph N/A   Clear
8:53 PM 30.0 °F 16.0 °F 15.1 °F 54% 29.70 in 10.0 mi WSW 25.3 mph 36.8 mph N/A   Clear
9:53 PM 30.0 °F 16.3 °F 14.0 °F 51% 29.73 in 10.0 mi WSW 24.2 mph 33.4 mph N/A   Partly Cloudy
10:53 PM 30.0 °F 16.6 °F 16.0 °F 56% 29.74 in 10.0 mi WSW 23.0 mph 31.1 mph N/A   Partly Cloudy
11:53 PM 28.9 °F 16.1 °F 15.1 °F 56% 29.75 in 10.0 mi WSW 19.6 mph - N/A   Partly Cloudy